FW9693 Weather Reports


time (UTC)temp
C
wind
direction
speed
KPH
gust
KPH
rain 1hr
cm
rain 24hr
cm
rain mn
cm
humidity
%
barometer
mb
20260505124534 21 242 22.5 29.0 0.00 0.00 0.00 29 1000.7
20260505123033 21 225 24.1 29.0 0.00 0.00 0.00 30 1000.6
20260505121536 20 218 17.7 22.5 0.00 0.00 0.00 36 1000.5
20260505120030 20 221 9.7 12.9 0.00 0.00 0.00 33 1000.4
20260505114524 20 243 12.9 16.1 0.00 0.00 0.00 33 1000.2
20260505113036 20 265 14.5 19.3 0.00 0.00 0.00 34 1000.1
20260505111538 20 273 14.5 19.3 0.00 0.00 0.00 35 1000.0
20260505101529 20 303 14.5 25.7 0.00 0.00 0.00 37 999.9
20260505100016 21 233 22.5 29.0 0.00 0.00 0.00 35 1000.0
20260505094511 21 243 22.5 29.0 0.00 0.00 0.00 34 999.9
20260505093009 21 225 22.5 27.4 0.00 0.00 0.00 33 999.9
20260505091506 21 219 17.7 22.5 0.00 0.00 0.00 34 1000.0
20260505090006 22 223 22.5 27.4 0.00 0.00 0.00 32 1000.1
20260505084518 21 221 19.3 24.1 0.00 0.00 0.00 34 1000.0
20260505083002 22 235 20.9 25.7 0.00 0.00 0.00 32 1000.0
20260505081501 22 232 20.9 25.7 0.00 0.00 0.00 31 999.9
20260505080059 22 238 16.1 19.3 0.00 0.00 0.00 33 1000.1
20260505074557 22 235 14.5 19.3 0.00 0.00 0.00 31 1000.3
20260505073058 23 226 16.1 19.3 0.00 0.00 0.00 30 1000.5
20260505071559 23 213 14.5 17.7 0.00 0.00 0.00 30 1000.3
20260505064555 24 214 16.1 17.7 0.00 0.00 0.00 27 1000.8
20260505063045 25 200 12.9 16.1 0.00 0.00 0.00 25 1000.9
20260505061609 26 229 12.9 17.7 0.00 0.00 0.00 23 1001.1
20260505060051 26 223 14.5 17.7 0.00 0.00 0.00 22 1001.2
20260505054548 26 235 14.5 17.7 0.00 0.00 0.00 22 1001.1
20260505053044 26 221 16.1 22.5 0.00 0.00 0.00 23 1001.2
20260505051543 26 229 17.7 22.5 0.00 0.00 0.00 23 1001.2
20260505041541 26 215 11.3 16.1 0.00 0.00 0.00 22 1001.4
20260505040055 27 225 14.5 17.7 0.00 0.00 0.00 20 1001.2
20260505034543 27 225 17.7 19.3 0.00 0.00 0.00 20 1001.0
20260505033039 27 229 16.1 19.3 0.00 0.00 0.00 20 1000.7
20260505031547 27 236 16.1 19.3 0.00 0.00 0.00 20 1000.7
20260505030042 27 249 20.9 25.7 0.00 0.00 0.00 19 1000.8
20260505024538 27 254 20.9 25.7 0.00 0.00 0.00 19 1001.1
20260505023036 28 273 17.7 24.1 0.00 0.00 0.00 19 1001.0
20260505021537 28 262 20.9 27.4 0.00 0.00 0.00 19 1001.0
20260505020040 28 272 20.9 29.0 0.00 0.00 0.00 18 1000.8
20260505014541 28 270 24.1 33.8 0.00 0.00 0.00 17 1000.5
20260505013033 29 275 25.7 37.0 0.00 0.00 0.00 17 1000.4
20260505011536 30 259 27.4 33.8 0.00 0.00 0.00 16 1000.3
20260505010033 30 273 25.7 41.8 0.00 0.00 0.00 15 1000.4
20260505004531 30 262 27.4 40.2 0.00 0.00 0.00 15 1000.4
20260505003029 30 248 19.3 37.0 0.00 0.00 0.00 15 1000.6
20260505001529 30 257 29.0 43.5 0.00 0.00 0.00 14 1000.7
20260505000041 31 273 25.7 43.5 0.00 0.00 0.00 14 1000.8
20260504234528 31 250 30.6 41.8 0.00 0.00 0.00 13 1001.1
20260504233026 31 271 27.4 43.5 0.00 0.00 0.00 14 1001.2
20260504231524 31 265 37.0 46.7 0.00 0.00 0.00 13 1001.0
20260504230025 31 246 35.4 49.9 0.00 0.00 0.00 13 1001.0
20260504224523 31 252 38.6 48.3 0.00 0.00 0.00 12 1001.2
20260504223124 31 264 29.0 48.3 0.00 0.00 0.00 12 1001.3
20260504221526 31 279 32.2 43.5 0.00 0.00 0.00 12 1001.3
20260504220038 31 248 29.0 45.1 0.00 0.00 0.00 14 1001.5
20260504214520 31 267 25.7 43.5 0.00 0.00 0.00 14 1001.8
20260504213017 31 229 35.4 51.5 0.00 0.00 0.00 14 1002.0
20260504211513 31 235 33.8 49.9 0.00 0.00 0.00 16 1002.1
20260504210011 30 259 40.2 51.5 0.00 0.00 0.00 17 1002.4
20260504204510 30 273 25.7 46.7 0.00 0.00 0.00 20 1002.7
20260504203008 30 229 25.7 45.1 0.00 0.00 0.00 20 1003.0
20260504201505 30 244 43.5 54.7 0.00 0.00 0.00 20 1003.3
20260504200004 28 246 37.0 51.5 0.00 0.00 0.00 21 1003.8
20260504194601 28 284 37.0 46.7 0.00 0.00 0.00 22 1003.9
20260504193114 28 261 37.0 54.7 0.00 0.00 0.00 23 1004.3
20260504191558 28 272 37.0 53.1 0.00 0.00 0.00 23 1004.2
20260504190106 28 273 37.0 41.8 0.00 0.00 0.00 26 1004.5
20260504184554 27 268 22.5 38.6 0.00 0.00 0.00 30 1004.5
20260504183058 27 277 29.0 45.1 0.00 0.00 0.00 30 1004.9
20260504181546 26 267 19.3 32.2 0.00 0.00 0.00 34 1005.3
20260504180112 26 254 19.3 33.8 0.00 0.00 0.00 36 1005.6
20260504174539 25 241 22.5 29.0 0.00 0.00 0.00 39 1005.7
20260504173038 25 248 17.7 25.7 0.00 0.00 0.00 40 1005.9
20260504171536 25 234 12.9 22.5 0.00 0.00 0.00 43 1006.0